This is the latest recevied weather packets stored in our database for station/object DL1AIE-13. If no packets are shown the sender has not sent any weather packets the latest 10 day(s).
| Time | Temp. | Humidity | Pressure | Rain* | Wind** | Luminosity | Snow |
|---|---|---|---|---|---|---|---|
| 1777730545 | 25.56° C | 29% | 1018.5 hPa | 0 mm | - | - | - |
| 1777729941 | 26.67° C | 30% | 1018.6 hPa | 0 mm | - | - | - |
| 1777729341 | 25.56° C | 31% | 1018.7 hPa | 0 mm | - | - | - |
| 1777728148 | 25.56° C | 30% | 1019 hPa | 0 mm | - | - | - |
| 1777727544 | 25.56° C | 31% | 1019.2 hPa | 0 mm | - | - | - |
| 1777726939 | 25.56° C | 32% | 1019.2 hPa | 0 mm | - | - | - |
| 1777726354 | 25° C | 31% | 1019.2 hPa | 0 mm | - | - | - |
| 1777725748 | 25° C | 31% | 1019.4 hPa | 0 mm | - | - | - |
| 1777725144 | 25.56° C | 32% | 1019.4 hPa | 0 mm | - | - | - |
| 1777724541 | 25° C | 32% | 1019.6 hPa | 0 mm | - | - | - |
| 1777723937 | 25° C | 31% | 1019.8 hPa | 0 mm | - | - | - |
| 1777723353 | 25° C | 32% | 1020 hPa | 0 mm | - | - | - |
| 1777722750 | 25° C | 32% | 1020.1 hPa | 0 mm | - | - | - |
| 1777722145 | 25° C | 31% | 1020.1 hPa | 0 mm | - | - | - |
| 1777721542 | 25° C | 32% | 1020.4 hPa | 0 mm | - | - | - |
| 1777720937 | 24.44° C | 35% | 1020.5 hPa | 0 mm | - | - | - |
| 1777720353 | 24.44° C | 34% | 1020.8 hPa | 0 mm | - | - | - |
| 1777719749 | 24.44° C | 33% | 1020.7 hPa | 0 mm | - | - | - |
| 1777719145 | 23.89° C | 34% | 1020.8 hPa | 0 mm | - | - | - |
| 1777718542 | 24.44° C | 33% | 1020.9 hPa | 0 mm | - | - | - |
| 1777717937 | 23.33° C | 35% | 1021.2 hPa | 0 mm | - | - | - |
| 1777717351 | 22.78° C | 35% | 1021.3 hPa | 0 mm | - | - | - |
| 1777716747 | 22.78° C | 36% | 1021.5 hPa | 0 mm | - | - | - |
| 1777716142 | 22.22° C | 36% | 1021.6 hPa | 0 mm | - | - | - |
| 1777715542 | 22.78° C | 36% | 1021.8 hPa | 0 mm | - | - | - |
* Rain latest hour (hover to see other rain measurements)
** Current wind speed in m/s (hover to see current wind gust speed)